[[{"header":{"parameterUnit":"m.s-1","parameterCategory":1,"la1":30.2991,"la2":30.254,"lo1":-89.0895,"lo2":-89.0444,"dy":0.0017,"dx":0.0017,"nx":28,"ny":28,"refTime":"2024-08-25T09:00:00:Z","depth":0,"parameterNumber":2,"parameterNumberName":"U-component_of_WINDS"},"data":[0,0,0,0,0,0,0,0,0,0,0,0,0,0,0,0,0,0,0,0,0,0,0,0,0,0,0,0,0,0,0,0,0,0,0,0,0,0,0,0,0,0,0,0,0,0,0,0,0,0,0,0,0,0,0,0,0,0,-0.3298,-0.3298,0,-0.3296,-0.3296,-0.3296,-0.3255,-0.3254,-0.3253,-0.3252,-0.3252,-0.3252,-0.3253,0,0,0,0,0,0,0,0,0,0,0,0,0,-0.327,-0.3271,-0.3298,-0.3298,-0.3298,-0.3296,-0.3296,-0.3296,-0.3255,-0.3254,-0.3253,-0.3251,-0.3251,-0.3252,-0.3254,0,0,0,0,0,0,0,0,0,0,0,0,0,-0.3277,-0.3271,-0.3298,-0.3277,-0.3275,-0.3296,-0.3296,-0.3296,-0.3255,-0.3254,-0.3252,-0.3251,-0.3251,-0.3252,-0.3254,-0.3294,0,0,-0.3258,-0.3259,0,0,0,0,0,0,0,0,-0.3276,-0.3278,-0.328,-0.3279,-0.3277,-0.3274,-0.3286,-0.3295,-0.3256,-0.3263,-0.3252,-0.325,-0.326,-0.3261,-0.3264,-0.3294,-0.3294,-0.3258,-0.3259,-0.326,-0.326,0,0,0,0,0,0,0,-0.3276,-0.3278,-0.3297,-0.3281,-0.3278,-0.3269,-0.3268,-0.3288,-0.3271,-0.3262,-0.3259,-0.326,-0.3259,-0.3263,-0.3264,-0.3294,-0.3258,-0.326,-0.326,-0.3261,-0.336,-0.3362,0,0,0,0,0,0,-0.3278,-0.3277,-0.3297,-0.3297,-0.3273,-0.3271,-0.327,-0.3277,-0.327,-0.3268,-0.3261,-0.3258,-0.3261,-0.3262,-0.3264,-0.3312,-0.326,-0.3261,-0.3262,-0.3359,-0.3361,-0.3363,0,0,0,0,0,0,-0.3278,-0.328,-0.3297,-0.3287,-0.3288,-0.3273,-0.3281,-0.3277,-0.3281,-0.3269,-0.3266,-0.3268,-0.326,-0.3262,-0.3287,-0.3312,-0.3262,-0.3263,-0.3357,-0.3359,-0.3362,-0.341,0,0,0,0,0,0,-0.3277,-0.328,-0.3295,-0.3287,-0.3289,-0.332,-0.3282,-0.3278,-0.3283,-0.3279,-0.3275,-0.3273,-0.3259,-0.3286,-0.3289,-0.3313,-0.3264,-0.3354,-0.3358,-0.3361,-0.3406,-0.3414,-0.342,0,0,0,0,0,-0.3276,-0.3308,-0.3295,-0.3298,-0.3306,-0.3322,-0.3323,-0.3306,-0.3285,-0.3301,-0.3293,-0.3273,-0.3309,-0.3288,-0.3292,-0.3317,-0.3353,-0.3357,-0.3361,-0.3403,-0.3412,-0.342,0,0,0,0,0,0,-0.3319,-0.3307,-0.3293,-0.3323,-0.3324,-0.3315,-0.3333,-0.3316,-0.3323,-0.3319,-0.3298,-0.3298,-0.3327,-0.3324,-0.3302,-0.3357,-0.3327,-0.3332,-0.3358,-0.3367,-0.3374,-0.3374,-0.3266,0,0,0,0,0,-0.3332,-0.3345,-0.3333,-0.3361,-0.3363,-0.3348,-0.3354,-0.3341,-0.3341,-0.3342,-0.3336,-0.3338,-0.335,-0.3358,-0.3368,-0.3405,-0.3405,-0.3424,-0.3431,-0.3437,-0.3442,-0.3464,-0.3473,-0.3376,-0.3376,-0.3376,0,0,-0.3359,-0.3354,-0.3363,-0.337,-0.3369,-0.3384,-0.3348,-0.3365,-0.3377,-0.3344,-0.3369,-0.3365,-0.3366,-0.3398,-0.3412,-0.3397,-0.3469,-0.3442,-0.3447,-0.3449,-0.3469,-0.3478,-0.3486,-0.3378,-0.3378,-0.3378,0,0,-0.3416,-0.3413,-0.3436,-0.3436,-0.3436,-0.3426,-0.3432,-0.3426,-0.3422,-0.3446,-0.3423,-0.3437,-0.3457,-0.3459,-0.3463,-0.3523,-0.3505,-0.3527,-0.3565,-0.3586,-0.3594,-0.36,-0.3624,-0.3632,-0.3531,-0.3532,-0.3532,0,-0.345,-0.347,-0.3451,-0.347,-0.3475,-0.3446,-0.3471,-0.3472,-0.3475,-0.3479,-0.3462,-0.3488,-0.3487,-0.352,-0.3535,-0.3538,-0.3546,-0.3527,-0.3594,-0.3601,-0.3607,-0.3629,-0.3637,-0.3534,-0.3534,-0.3534,-0.3533,0,-0.3513,-0.3528,-0.3548,-0.3551,-0.3558,-0.358,-0.3565,-0.3574,-0.3561,-0.3554,-0.358,-0.3577,-0.3587,-0.3594,-0.3581,-0.3627,-0.3617,-0.3597,-0.3567,-0.3619,-0.3639,-0.3647,-0.3538,-0.3537,-0.3537,-0.3536,0,0,-0.3597,-0.359,-0.3598,-0.36,-0.3597,-0.3609,-0.3631,-0.364,-0.3649,-0.3653,-0.3672,-0.369,-0.3672,-0.3677,-0.3664,-0.3683,-0.3733,-0.3661,-0.366,-0.3676,-0.3785,-0.3801,-0.3811,-0.3721,-0.3722,-0.3723,-0.3785,0,-0.3653,-0.3688,-0.3672,-0.371,-0.3725,-0.3699,-0.3718,-0.3719,-0.3714,-0.3726,-0.372,-0.3734,-0.3709,-0.3711,-0.3729,-0.3723,-0.3755,-0.3718,-0.374,-0.3741,-0.3741,-0.3821,-0.3837,-0.3896,-0.3793,-0.3794,-0.3795,0,-0.3723,-0.373,-0.3769,-0.3766,-0.3771,-0.3788,-0.3797,-0.3809,-0.3811,-0.3806,-0.3811,-0.3795,-0.3818,-0.3787,-0.3819,-0.3795,-0.3803,-0.3802,-0.3803,-0.3805,-0.3772,-0.3827,-0.3914,-0.3923,-0.3807,-0.3806,-0.3805,0,-0.3783,-0.3801,-0.3827,-0.383,-0.3826,-0.3839,-0.3838,-0.3839,-0.3846,-0.3854,-0.3859,-0.3869,-0.3875,-0.3885,-0.3873,-0.3851,-0.3907,-0.3875,-0.3905,-0.3905,-0.3918,-0.3918,-0.4009,-0.3921,-0.3921,-0.3921,-0.3921,0,-0.3848,-0.3873,-0.3854,-0.387,-0.3899,-0.3881,-0.391,-0.3906,-0.3907,-0.3924,-0.3902,-0.3918,-0.39,-0.3915,-0.3906,-0.3935,-0.3937,-0.3935,-0.3932,-0.3937,-0.3938,-0.3943,-0.3939,-0.3923,-0.3923,-0.3922,-0.3922,0,-0.3919,-0.3907,-0.3934,-0.3928,-0.3928,-0.3949,-0.3945,-0.3961,-0.3954,-0.3975,-0.3979,-0.3969,-0.3986,-0.3974,-0.3991,-0.3985,-0.4023,-0.4014,-0.4023,-0.4021,-0.4052,-0.4049,-0.415,-0.4163,-0.4066,-0.4067,-0.4068,0,-0.3962,-0.3981,-0.3978,-0.3987,-0.3987,-0.4002,-0.401,-0.3994,-0.4003,-0.4007,-0.4023,-0.4038,-0.4049,-0.4077,-0.4072,-0.4085,-0.4077,-0.4112,-0.4079,-0.4084,-0.408,-0.4079,-0.4082,-0.4119,-0.412,-0.4121,-0.4121,0,-0.404,-0.4033,-0.4045,-0.4055,-0.4064,-0.4071,-0.4077,-0.4086,-0.4069,-0.4081,-0.4098,-0.4106,-0.4124,-0.4139,-0.4151,-0.4151,-0.4135,-0.4132,-0.414,-0.4146,-0.415,-0.415,-0.4042,-0.413,-0.4129,-0.4128,-0.4128,-0.4127,-0.4099,-0.4116,-0.4117,-0.413,-0.4133,-0.4139,-0.4154,-0.4149,-0.4162,-0.4175,-0.4165,-0.4185,-0.4189,-0.4202,-0.4205,-0.4222,-0.4208,-0.4219,-0.4222,-0.4225,-0.423,-0.4147,-0.4224,-0.4224,-0.4223,-0.4223,-0.4223,0,-0.4178,-0.4177,-0.419,-0.4199,-0.421,-0.4192,-0.4198,-0.4209,-0.4227,-0.4231,-0.4243,-0.4263,-0.4279,-0.4275,-0.4289,-0.4304,-0.4296,-0.4308,-0.4307,-0.4308,-0.4241,-0.4234,-0.4314,-0.4314,-0.4314,-0.4314,-0.4314,-0.4314,-0.422,-0.4248,-0.4241,-0.4271,-0.427,-0.4289,-0.4294,-0.43,-0.4304,-0.4327,-0.434,-0.4337,-0.4339,-0.4353,-0.4368,-0.4366,-0.4373,-0.4388,-0.4384,-0.4322,-0.4313,-0.4304,-0.4297,-0.4389,-0.4389,-0.445,-0.4451,-0.4451]},{"header":{"parameterUnit":"m.s-1","parameterCategory":1,"la1":30.2991,"la2":30.254,"lo1":-89.0895,"lo2":-89.0444,"dy":0.0017,"dx":0.0017,"nx":28,"ny":28,"refTime":"2024-08-25T09:00:00:Z","depth":0,"parameterNumber":3,"parameterNumberName":"V-component_of_WINDS"},"data":[0,0,0,0,0,0,0,0,0,0,0,0,0,0,0,0,0,0,0,0,0,0,0,0,0,0,0,0,0,0,0,0,0,0,0,0,0,0,0,0,0,0,0,0,0,0,0,0,0,0,0,0,0,0,0,0,0,0,2.8382,2.8382,0,2.8377,2.8377,2.8377,2.8395,2.8395,2.8396,2.8396,2.8388,2.8387,2.8386,0,0,0,0,0,0,0,0,0,0,0,0,0,2.8402,2.8401,2.8382,2.8382,2.8382,2.8377,2.8377,2.8377,2.8395,2.8395,2.8396,2.8396,2.8388,2.8387,2.8386,0,0,0,0,0,0,0,0,0,0,0,0,0,2.8395,2.8401,2.8382,2.839,2.839,2.8377,2.8377,2.8377,2.8394,2.8395,2.8396,2.8397,2.8388,2.8387,2.8386,2.8364,0,0,2.8383,2.8382,0,0,0,0,0,0,0,0,2.8395,2.8394,2.8389,2.8389,2.839,2.8387,2.8381,2.8373,2.8394,2.8393,2.8396,2.8397,2.8387,2.8386,2.8383,2.8363,2.8363,2.8383,2.8382,2.8382,2.8381,0,0,0,0,0,0,0,2.8396,2.8394,2.838,2.8389,2.8389,2.8393,2.8393,2.838,2.8385,2.8393,2.8394,2.8394,2.8387,2.8384,2.8383,2.8363,2.8383,2.8382,2.8381,2.8381,2.8325,2.8324,0,0,0,0,0,0,2.8395,2.8395,2.838,2.838,2.8395,2.8392,2.8392,2.8387,2.8386,2.8386,2.8393,2.8395,2.8386,2.8384,2.8383,2.8356,2.8382,2.8381,2.838,2.8326,2.8325,2.8324,0,0,0,0,0,0,2.8396,2.8394,2.838,2.8388,2.8386,2.8391,2.8386,2.8387,2.8384,2.8386,2.8386,2.8389,2.8386,2.8384,2.8369,2.8356,2.838,2.8379,2.8327,2.8325,2.8324,2.8303,0,0,0,0,0,0,2.8396,2.8394,2.8386,2.8387,2.8386,2.8367,2.8385,2.8386,2.8382,2.8384,2.8382,2.8382,2.8387,2.837,2.8368,2.8355,2.8378,2.8328,2.8326,2.8325,2.8305,2.8301,2.8298,0,0,0,0,0,2.8397,2.838,2.8386,2.8384,2.8376,2.8366,2.8365,2.8371,2.8381,2.8373,2.8374,2.8383,2.8359,2.8369,2.8366,2.8353,2.8328,2.8326,2.8325,2.8307,2.8302,2.8298,0,0,0,0,0,0,2.8375,2.838,2.8387,2.8369,2.8367,2.8369,2.8359,2.8367,2.8361,2.8363,2.837,2.8369,2.8352,2.8351,2.8362,2.8331,2.8345,2.8342,2.8332,2.8328,2.8325,2.8325,2.8378,0,0,0,0,0,2.8369,2.8362,2.8366,2.835,2.8349,2.8354,2.835,2.8355,2.8353,2.8352,2.8352,2.8348,2.834,2.8334,2.8327,2.8306,2.8305,2.8295,2.8292,2.8289,2.8286,2.8275,2.8271,2.8317,2.8317,2.8317,0,0,2.8355,2.8356,2.8351,2.8345,2.8345,2.8336,2.8353,2.8343,2.8336,2.835,2.8335,2.8335,2.8332,2.8313,2.8305,2.8312,2.8274,2.8287,2.8285,2.8283,2.8273,2.8268,2.8264,2.8316,2.8316,2.8317,0,0,2.8324,2.8325,2.8312,2.8311,2.8311,2.8314,2.8311,2.8312,2.8313,2.8299,2.8309,2.8301,2.8287,2.8284,2.8281,2.8251,2.8257,2.8248,2.823,2.8218,2.8215,2.8211,2.82,2.8196,2.8245,2.8245,2.8245,0,2.8306,2.8295,2.8304,2.8294,2.8291,2.8305,2.8291,2.8289,2.8285,2.8283,2.8291,2.8274,2.8272,2.8253,2.8246,2.8243,2.8239,2.8247,2.8215,2.8212,2.8209,2.8198,2.8193,2.8244,2.8244,2.8244,2.8245,0,2.8272,2.8264,2.8253,2.8251,2.8247,2.8235,2.8242,2.8236,2.8243,2.8245,2.8231,2.823,2.8223,2.8219,2.8224,2.82,2.8205,2.8214,2.8228,2.8203,2.8193,2.8188,2.8242,2.8243,2.8243,2.8244,0,0,2.8226,2.8231,2.8226,2.8225,2.8226,2.8219,2.8208,2.8202,2.8197,2.8194,2.8184,2.8173,2.8181,2.8178,2.8183,2.8173,2.8149,2.8183,2.8183,2.8176,2.8122,2.8114,2.8109,2.8154,2.8154,2.8153,2.8122,0,2.8196,2.8177,2.8186,2.8166,2.8158,2.8172,2.8162,2.8161,2.8164,2.8157,2.8159,2.815,2.8163,2.8161,2.8152,2.8154,2.8138,2.8156,2.8143,2.8143,2.8142,2.8104,2.8096,2.8066,2.8118,2.8117,2.8117,0,2.8157,2.8155,2.8134,2.8137,2.8134,2.8125,2.812,2.8114,2.8113,2.8116,2.8112,2.812,2.8108,2.8123,2.8106,2.8119,2.8114,2.8114,2.8113,2.8111,2.8127,2.8099,2.8057,2.8052,2.8111,2.8111,2.8112,0,2.8125,2.8116,2.8103,2.8102,2.8105,2.8098,2.8098,2.8098,2.8095,2.8091,2.8088,2.8082,2.8079,2.8074,2.8079,2.809,2.8061,2.8077,2.8062,2.8062,2.8054,2.8054,2.8009,2.8053,2.8053,2.8053,2.8053,0,2.8089,2.8076,2.8088,2.808,2.8065,2.8075,2.806,2.8063,2.8063,2.8054,2.8066,2.8057,2.8066,2.8058,2.8063,2.8048,2.8046,2.8047,2.8048,2.8045,2.8045,2.8041,2.8043,2.8052,2.8052,2.8053,2.8053,0,2.8049,2.8057,2.8044,2.8048,2.8049,2.8038,2.8041,2.8033,2.8038,2.8027,2.8025,2.8031,2.8023,2.8028,2.8019,2.8022,2.8002,2.8007,2.8003,2.8004,2.7988,2.7989,2.7938,2.7931,2.7981,2.798,2.798,0,2.8025,2.8016,2.802,2.8016,2.8016,2.8009,2.8006,2.8016,2.8011,2.801,2.8002,2.7995,2.799,2.7976,2.7978,2.7972,2.7975,2.7958,2.7974,2.7972,2.7974,2.7974,2.7972,2.7954,2.7953,2.7953,2.7953,0,2.7981,2.7986,2.7981,2.7978,2.7974,2.7972,2.797,2.7966,2.7976,2.7971,2.7963,2.7959,2.7951,2.7944,2.7938,2.7938,2.7946,2.7948,2.7944,2.794,2.7938,2.7938,2.7993,2.7948,2.7949,2.7949,2.7949,2.795,2.7948,2.794,2.7942,2.7936,2.7937,2.7935,2.7928,2.7932,2.7926,2.7921,2.7928,2.7918,2.7917,2.7911,2.791,2.7902,2.7909,2.7903,2.7902,2.79,2.7897,2.794,2.7901,2.7902,2.7902,2.7902,2.7902,0,2.7904,2.7906,2.7901,2.7899,2.7895,2.7906,2.7905,2.79,2.7891,2.7891,2.7886,2.7877,2.787,2.7873,2.7867,2.786,2.7864,2.7858,2.7858,2.7857,2.7892,2.7896,2.7855,2.7855,2.7855,2.7855,2.7855,2.7855,2.788,2.7867,2.7872,2.786,2.7862,2.7854,2.7852,2.7851,2.785,2.784,2.7835,2.7838,2.7839,2.7833,2.7827,2.7828,2.7824,2.7817,2.7819,2.785,2.7855,2.7859,2.7863,2.7816,2.7816,2.7785,2.7785,2.7784]}]]